Weather History for KHUM - September, 2013

Change the Weather History Date:

Monday, September 23, 2013

  Actual Average Record
Temperature  
Mean Temperature 78 °F -  
Max Temperature 87 °F 86 °F 93 °F (1931)
Min Temperature 69 °F 67 °F 51 °F (1938)
Cooling Degree Days 13    
Growing Degree Days 28 (Base 50)    
Moisture  
Dew Point 69 °F    
Average Humidity 79    
Maximum Humidity 89    
Minimum Humidity 58    
Precipitation  
Precipitation 0.00 in - - ()
Sea Level Pressure  
Sea Level Pressure 29.80 in    
Wind  
Wind Speed 5 mph (ENE)    
Max Wind Speed 15 mph    
Max Gust Speed -    
Visibility 8 miles    
Events      
Averages and records for this station are not official NWS values.
T = Trace of Precipitation, MM = Missing Value Source: NWS Daily Summary

Daily Weather History Graph

Daily Weather History Graph

Search for Another Location

Airport or City:

Trip Planner

Search our weather history database for the weather conditions in past years. The results will help you decide how hot, cold, wet, or windy it might be!

Date:

Astronomy

Sep. 23, 2013 Rise Set
Actual Time 6:51 AM CDT 6:57 PM CDT
Civil Twilight 6:27 AM CDT 7:21 PM CDT
Nautical Twilight 6:00 AM CDT 7:49 PM CDT
Astronomical Twilight 5:32 AM CDT 8:16 PM CDT
Moon 9:51 PM CDT (9/23) 10:50 AM CDT (9/23)
Length of Visible Light 12h 53m
Length of Day
12h 05m
Waning Gibbous, 81% of the Moon is Illuminated
Sep 23
Waning Gibbous
Sep 26
Last Quarter
Oct 4
New
Oct 11
First Quarter
Oct 18
Full

Hourly Weather History & Observations

Time (CDT) Temp. Heat Index Dew Point Humidity Pressure Visibility Wind Dir Wind Speed Gust Speed Precip Events Conditions
12:15 AM 71.1 °F - 65.7 °F 83% 29.80 in 10.0 mi Calm Calm - N/A   Mostly Cloudy
12:35 AM 70.9 °F - 65.5 °F 83% 29.80 in 10.0 mi NE 3.5 mph - N/A   Mostly Cloudy
12:55 AM 70.9 °F - 64.8 °F 81% 29.80 in 7.0 mi NE 5.8 mph - N/A   Scattered Clouds
1:15 AM 71.1 °F - 64.2 °F 79% 29.79 in 10.0 mi NE 5.8 mph - N/A   Scattered Clouds
1:35 AM 70.7 °F - 63.7 °F 78% 29.80 in 10.0 mi NE 4.6 mph - N/A   Clear
1:55 AM 70.5 °F - 63.5 °F 78% 29.80 in 10.0 mi NE 4.6 mph - N/A   Clear
2:15 AM 70.7 °F - 63.3 °F 77% 29.79 in 10.0 mi NE 4.6 mph - N/A   Clear
2:35 AM 70.7 °F - 63.1 °F 77% 29.79 in 10.0 mi NE 5.8 mph - N/A   Clear
2:55 AM 70.5 °F - 63.5 °F 78% 29.79 in 7.0 mi NE 4.6 mph - N/A   Clear
3:15 AM 70.0 °F - 63.5 °F 80% 29.78 in 10.0 mi NE 4.6 mph - N/A   Clear
3:35 AM 69.8 °F - 63.9 °F 81% 29.78 in 7.0 mi NNE 4.6 mph - N/A   Clear
3:55 AM 69.8 °F - 63.9 °F 81% 29.78 in 10.0 mi NE 5.8 mph - N/A   Clear
4:15 AM 69.8 °F - 63.5 °F 80% 29.77 in 7.0 mi NE 5.8 mph - N/A   Clear
4:35 AM 69.8 °F - 63.9 °F 81% 29.77 in 10.0 mi NE 4.6 mph - N/A   Clear
4:55 AM 69.4 °F - 63.7 °F 82% 29.78 in 7.0 mi NE 3.5 mph - N/A   Clear
5:15 AM 69.3 °F - 63.9 °F 83% 29.78 in 10.0 mi NE 4.6 mph - N/A   Clear
5:35 AM 69.3 °F - 64.0 °F 83% 29.79 in 7.0 mi NE 3.5 mph - N/A   Clear
5:49 AM 69.8 °F - 64.4 °F 83% 29.80 in 7.0 mi North 5.8 mph - N/A   Clear
5:55 AM 69.3 °F - 64.4 °F 84% 29.79 in 10.0 mi NNE 3.5 mph - N/A   Clear
6:51 AM 69.8 °F - 64.4 °F 83% 29.81 in 7.0 mi NNE 9.2 mph - N/A   Scattered Clouds
7:55 AM 71.6 °F - 66.2 °F 83% 29.82 in 7.0 mi ENE 4.6 mph - N/A   Scattered Clouds
9:51 AM 82.4 °F 87.2 °F 71.6 °F 70% 29.83 in 7.0 mi ENE 9.2 mph - N/A   Scattered Clouds
10:48 AM 84.2 °F 89.6 °F 71.6 °F 66% 29.83 in 7.0 mi ENE 9.2 mph - N/A   Scattered Clouds
11:48 AM 87.8 °F 95.6 °F 73.4 °F 62% 29.82 in 7.0 mi ENE 12.7 mph - N/A   Mostly Cloudy
12:48 PM 87.8 °F 93.8 °F 71.6 °F 58% 29.81 in 7.0 mi ESE 15.0 mph - N/A   Mostly Cloudy
1:50 PM 87.8 °F 93.8 °F 71.6 °F 58% 29.80 in 7.0 mi SE 11.5 mph - N/A   Mostly Cloudy
2:50 PM 87.8 °F 93.8 °F 71.6 °F 58% 29.80 in 7.0 mi SE 9.2 mph - N/A   Mostly Cloudy
3:50 PM 87.8 °F 93.8 °F 71.6 °F 58% 29.79 in 7.0 mi SE 9.2 mph - N/A   Mostly Cloudy
4:50 PM 87.8 °F 95.6 °F 73.4 °F 62% 29.79 in 7.0 mi SE 9.2 mph - N/A   Mostly Cloudy
5:50 PM 86.0 °F 93.4 °F 73.4 °F 66% 29.79 in 7.0 mi SE 8.1 mph - N/A   Scattered Clouds
6:50 PM 84.2 °F 90.9 °F 73.4 °F 70% 29.80 in 7.0 mi SE 8.1 mph - N/A   Scattered Clouds
7:15 PM 81.7 °F 87.3 °F 73.9 °F 77% 29.80 in 10.0 mi East 8.1 mph - N/A   Unknown
7:35 PM 79.9 °F - 73.8 °F 81% 29.80 in 10.0 mi East 3.5 mph - N/A   Mostly Cloudy
7:55 PM 79.0 °F - 73.8 °F 84% 29.80 in 7.0 mi Calm Calm - N/A   Scattered Clouds
8:15 PM 78.4 °F - 73.8 °F 85% 29.81 in 10.0 mi Calm Calm - N/A   Scattered Clouds
8:35 PM 78.3 °F - 73.8 °F 86% 29.81 in 10.0 mi East 4.6 mph - N/A   Scattered Clouds
8:55 PM 78.8 °F - 74.3 °F 86% 29.81 in 10.0 mi East 4.6 mph - N/A   Scattered Clouds
9:15 PM 78.8 °F - 74.3 °F 86% 29.82 in 10.0 mi Calm Calm - N/A   Clear
9:35 PM 78.3 °F - 74.3 °F 88% 29.82 in 10.0 mi East 3.5 mph - N/A   Clear
9:55 PM 78.1 °F - 74.3 °F 88% 29.83 in 7.0 mi Calm Calm - N/A   Scattered Clouds
10:15 PM 77.9 °F - 74.1 °F 88% 29.83 in 7.0 mi Calm Calm - N/A   Scattered Clouds
10:35 PM 77.4 °F - 73.6 °F 88% 29.84 in 7.0 mi Calm Calm - N/A   Scattered Clouds
10:55 PM 77.5 °F - 74.1 °F 89% 29.84 in 7.0 mi ENE 3.5 mph - N/A   Scattered Clouds
11:15 PM 78.1 °F - 74.5 °F 89% 29.83 in 7.0 mi Calm Calm - N/A   Mostly Cloudy
11:35 PM 78.1 °F - 74.5 °F 89% 29.83 in 7.0 mi East 3.5 mph - N/A   Mostly Cloudy
11:55 PM 77.9 °F - 74.5 °F 89% 29.83 in 7.0 mi Calm Calm - N/A   Scattered Clouds